"Pseudo-MPEC" for scaxx03

Created 2024 May 9 17:22:21 UT using Find_Orb

Click here for an explanation of pseudo-MPECs

 
 Astrometry: 
     scaxx03* B2024 04 18%Cckp,U:\'*)Oa=?k$vA^NnFp5NF:ji@.4j:C^QKiZiru`8fhb#0L92
     scaxx03 KB2024 04 18#gER3_BAstrometryVYPkIEh.v9Q0\I+waL;PhFxv3CNF\J#;!H6L92
     scaxx03  B2024 04 18Lv*W,f'k=B=YL+Qs]M`ZUa1[f*[VW,h=Mo.jkL#1/7redacted;oL92
     scaxx03 KB2024 04 186Q)l8rV1SB;4yLE_:bfcp1Tv4r.CcWZ;`S`xdL+,clickA?_mEa1L92
     scaxx03  B2024 04 18JPvYM1+5.olBd,HqG[s+B:$'bB#Hl(yhaSl;b;a^%m-w:-2gmT\qL92
     scaxx03 KB2024 04 196x:!b);+Du^76,w_2EFc_-u'*cr@a26NSD^D?B50CBa\T,(qFilMQ06
     scaxx03 KB2024 04 19jP6bpQNamV:mTRltt'^qIE-WR5NR%uhere%IKo1forvF9]moQ;J)Q06
     scaxx03 KB2024 04 19-xWh\Ol[\IgLR?+MxTRm?Nm2ea'V+y=)W+?`explanationwUv!BQ06

Station data:
(L92) San Costantino  (N38.705391 E16.002110)  Italy.  Observer T. Scarmato.
   0.25-m Newtonian reflector + CCD.
(Q06) Tarui Observatory, Tarui  (N35.394791 E136.495470)  Japan.

Orbital elements:  scaxx03
   Perihelion 2024 Jun 11.64657 +/- 2.57 TT = 15:31:03 (JD 2460473.14657)
Epoch 2024 Apr 19.0 TT = JDT 2460419.5   Earth MOID: 0.0007   Ma: 0.0425
M 320.17318466 +/- 5.0              (J2000 ecliptic)             AutoNEOCP
n   0.74239253 +/- 0.0582           Peri.  241.16281 +/- 1.4
a   1.20794451 +/- 0.0631           Node    32.31876 +/- 0.18
e   0.2597217 +/- 0.0493            Incl.    2.31418 +/- 0.29
P   1.33/484.91d           H 26.98  G  0.15   U 10.8
q 0.89421502 +/- 0.0129    Q 1.52167400 +/- 0.139
From 8 observations 2024 Apr. 18-19 (17.3 hr); mean residual 0".58
Residuals in arcseconds: 
240418 L92  .32-  .20+    240418 L92  .40+  .35+    240419 Q06  .95-  .09-    
240418 L92  .04+  .34+    240418 L92  1.0+  .01+    240419 Q06  .50+  .27-    
240418 L92  1.2-  .91-    240419 Q06  .44+  .36+    

Ephemerides (geocentric):
Date (UTC) HH   RA             Dec           delta  r     elong  mag " sig PA
---- --------  ------------   ------------  ------ ------ -----  --- --------
2024 05 09 17  01 19 43.396   -01 49 48.49  .08167 .94206  32.8 28?? 8661  83
2024 05 09 18  01 19 45.651   -01 49 32.85  .08186 .94194  32.8 28?? 8658  83
2024 05 09 19  01 19 47.904   -01 49 17.19  .08205 .94182  32.8 28?? 8656  83
2024 05 09 20  01 19 50.154   -01 49 01.50  .08224 .94170  32.9 28?? 8653  83
2024 05 09 21  01 19 52.402   -01 48 45.80  .08243 .94158  32.9 28?? 8650  83
2024 05 09 22  01 19 54.648   -01 48 30.07  .08262 .94146  32.9 28?? 8648  83
2024 05 09 23  01 19 56.892   -01 48 14.32  .08280 .94134  32.9 28?? 8645  83
2024 05 10 00  01 19 59.134   -01 47 58.55  .08299 .94122  33.0 28?? 8643  83
2024 05 10 01  01 20 01.374   -01 47 42.76  .08318 .94110  33.0 28?? 8640  83
2024 05 10 02  01 20 03.612   -01 47 26.94  .08337 .94098  33.0 28?? 8637  83
2024 05 10 03  01 20 05.848   -01 47 11.11  .08356 .94086  33.1 28?? 8635  83
2024 05 10 04  01 20 08.082   -01 46 55.25  .08375 .94074  33.1 28?? 8632  83
2024 05 10 05  01 20 10.314   -01 46 39.37  .08394 .94062  33.1 28?? 8629  83
2024 05 10 06  01 20 12.544   -01 46 23.47  .08413 .94050  33.1 28?? 8627  83
2024 05 10 07  01 20 14.772   -01 46 07.55  .08431 .94038  33.2 28?? 8624  83
2024 05 10 08  01 20 16.998   -01 45 51.60  .08450 .94027  33.2 28?? 8622  83
2024 05 10 09  01 20 19.223   -01 45 35.64  .08469 .94015  33.2 28?? 8619  83
2024 05 10 10  01 20 21.446   -01 45 19.65  .08488 .94003  33.3 28?? 8616  83
2024 05 10 11  01 20 23.667   -01 45 03.63  .08507 .93991  33.3 28?? 8614  83
2024 05 10 12  01 20 25.887   -01 44 47.60  .08526 .93979  33.3 28?? 8611  83
2024 05 10 13  01 20 28.105   -01 44 31.54  .08545 .93967  33.3 28?? 8608  83
2024 05 10 14  01 20 30.321   -01 44 15.47  .08564 .93955  33.4 28?? 8606  83
2024 05 10 15  01 20 32.536   -01 43 59.36  .08583 .93944  33.4 28?? 8603  83
2024 05 10 16  01 20 34.749   -01 43 43.24  .08602 .93932  33.4 28?? 8601  83
2024 05 10 17  01 20 36.961   -01 43 27.09  .08621 .93920  33.5 28?? 8598  83
2024 05 10 18  01 20 39.171   -01 43 10.93  .08640 .93908  33.5 28?? 8595  83
2024 05 10 19  01 20 41.380   -01 42 54.73  .08659 .93896  33.5 28?? 8593  83
2024 05 10 20  01 20 43.587   -01 42 38.52  .08678 .93885  33.5 28?? 8590  83
2024 05 10 21  01 20 45.793   -01 42 22.28  .08697 .93873  33.6 28?? 8588  83
2024 05 10 22  01 20 47.998   -01 42 06.02  .08715 .93861  33.6 28?? 8585  83
2024 05 10 23  01 20 50.201   -01 41 49.74  .08734 .93849  33.6 28?? 8582  83
2024 05 11 00  01 20 52.403   -01 41 33.43  .08753 .93838  33.7 28?? 8580  83
2024 05 11 01  01 20 54.604   -01 41 17.10  .08772 .93826  33.7 28?? 8577  83
2024 05 11 02  01 20 56.804   -01 41 00.75  .08791 .93814  33.7 28?? 8575  83
2024 05 11 03  01 20 59.002   -01 40 44.37  .08810 .93803  33.7 28?? 8572  83
2024 05 11 04  01 21 01.199   -01 40 27.97  .08829 .93791  33.8 28?? 8569  83
2024 05 11 05  01 21 03.395   -01 40 11.55  .08848 .93779  33.8 28?? 8567  83
2024 05 11 06  01 21 05.590   -01 39 55.10  .08867 .93768  33.8 28?? 8564  83
2024 05 11 07  01 21 07.784   -01 39 38.63  .08886 .93756  33.8 28?? 8562  83
2024 05 11 08  01 21 09.977   -01 39 22.14  .08905 .93744  33.9 28?? 8559  83
2024 05 11 09  01 21 12.169   -01 39 05.62  .08924 .93733  33.9 28?? 8556  83
2024 05 11 10  01 21 14.360   -01 38 49.08  .08944 .93721  33.9 28?? 8554  83
2024 05 11 11  01 21 16.549   -01 38 32.52  .08963 .93710  34.0 28?? 8551  83
2024 05 11 12  01 21 18.738   -01 38 15.93  .08982 .93698  34.0 28?? 8549  83
2024 05 11 13  01 21 20.926   -01 37 59.32  .09001 .93686  34.0 28?? 8546  83
2024 05 11 14  01 21 23.113   -01 37 42.69  .09020 .93675  34.0 28?? 8543  83
2024 05 11 15  01 21 25.300   -01 37 26.03  .09039 .93663  34.1 28?? 8541  83
2024 05 11 16  01 21 27.485   -01 37 09.34  .09058 .93652  34.1 28?? 8538  83